CENTISPACE-1 S16 (62585 NORAD) Tracking and Keplerian Element Data

This shows tracking and keplerian element data for the satellite.

Feedback or suggestion? Click here.




ElementValue
Catalog62585
NameCENTISPACE-1 S16
Epoch Orbit325
Epoch Day35.19252811
Epoch Year2025
RAAN38.1712
Inclination54.9825
Eccentricity0.0013079
Argument of Perigee347.5225
Mean Anonmoly12.5449
Mean Motion14.75251031
Decay Rate4.29E-05
L11 62585U 25007L 25035.19252811 .00004290 00000+0 65885-3 0 9993
L22 62585 54.9825 38.1712 0013079 347.5225 12.5449 14.75251031 3255



Live tracking and technical data element details for CENTISPACE-1 S16 (NORAD 62585). CENTISPACE-1 S16 can be tracked NOW for your location showing map with azimuth and elevation plus other details from your city location.







IsCatalogInMostPopularTable: catalog: 62585, numindb: 11
Update: records affected: 1



GetName: 62585 CENTISPACE-1 S16

Hit Count: updated at: Sat, 24 May 2025 16:32:13 GMT